DW6725 Weather Reports


Display with metric or nautical units.
time (UTC)temp
F
wind
direction
speed
MPH
gust
MPH
rain 1hr
in
rain 24hr
in
rain mn
in
humidity
%
barometer
mb
20260510093004 52 360 2.0 7.0 0.00 0.00 0.00 90 1010.8
20260510092004 52 360 1.0 7.0 0.00 0.00 0.00 89 1010.8
20260510091004 52 360 1.0 5.0 0.00 0.00 0.00 89 1010.6
20260510090005 52 360 2.0 8.0 0.00 0.00 0.00 89 1010.2
20260510085006 52 360 2.0 8.0 0.00 0.00 0.00 90 1010.3
20260510084004 52 360 1.0 5.0 0.00 0.00 0.00 90 1010.2
20260510083004 52 360 1.0 6.0 0.00 0.00 0.00 92 1010.1
20260510082214 51 360 2.0 6.0 0.00 0.00 0.00 92 1010.2
20260510081004 51 360 4.0 6.0 0.00 0.00 0.00 92 1009.8
20260510080005 51 360 2.0 5.0 0.00 0.00 0.00 92 1009.7
20260510075004 51 360 3.0 6.0 0.00 0.00 0.00 91 1009.6
20260510074004 52 360 3.0 9.0 0.00 0.00 0.00 91 1009.5
20260510073006 51 360 3.0 10.0 0.00 0.00 0.00 92 1009.5
20260510072003 51 360 3.0 10.0 0.00 0.00 0.00 94 1009.5
20260510071004 51 360 4.0 8.0 0.00 0.00 0.00 94 1009.4
20260510070004 51 360 3.0 6.0 0.00 0.00 0.00 94 1009.3
20260510065006 51 360 3.0 8.0 0.00 0.00 0.00 94 1009.1
20260510064003 51 360 3.0 10.0 0.00 0.00 0.00 94 1009.2
20260510063003 51 360 2.0 9.0 0.00 0.00 0.00 94 1009.0
20260510062004 51 360 4.0 9.0 0.00 0.00 0.00 94 1008.9
20260510061003 51 360 5.0 10.0 0.00 0.00 0.00 94 1009.2
20260510060213 51 360 5.0 10.0 0.00 0.00 0.00 95 1009.3
20260510055215 51 360 4.0 7.0 0.00 0.00 0.00 95 1009.4
20260510054003 51 360 3.0 8.0 0.00 0.00 0.00 96 1009.3
20260510053004 51 360 3.0 9.0 0.00 0.00 0.00 96 1009.4
20260510052005 51 360 3.0 9.0 0.00 0.00 0.00 96 1009.4
20260510051004 51 360 3.0 9.0 0.00 0.00 0.00 97 1009.2
20260510050005 51 360 4.0 9.0 0.00 0.00 0.00 97 1009.1
20260510045004 51 360 3.0 7.0 0.00 0.00 0.00 97 1009.1
20260510044004 51 360 4.0 8.0 0.01 0.00 0.00 97 1008.9
20260510043003 52 360 2.0 10.0 0.01 0.00 0.00 97 1008.8
20260510042003 52 360 3.0 10.0 0.02 0.00 0.00 97 1008.7
20260510041003 52 360 4.0 9.0 0.04 0.00 0.00 97 1008.9
20260510040007 52 360 3.0 7.0 0.05 0.00 0.00 95 1008.7
20260510035006 52 360 3.0 9.0 0.06 0.00 0.15 95 1008.7
20260510034005 52 360 3.0 10.0 0.07 0.00 0.14 95 1009.0
20260510033005 52 360 3.0 9.0 0.08 0.00 0.14 94 1009.0
20260510032006 52 360 3.0 9.0 0.12 0.00 0.13 94 1009.2
20260510031006 53 360 3.0 10.0 0.12 0.00 0.12 93 1009.3
20260510030005 53 360 3.0 10.0 0.11 0.00 0.11 91 1009.5
20260510025004 53 360 3.0 10.0 0.09 0.00 0.09 89 1009.6
20260510024004 54 360 4.0 13.0 0.07 0.00 0.07 85 1009.6
20260510023004 55 360 5.0 18.0 0.06 0.00 0.06 81 1009.8
20260510022005 57 360 6.0 20.0 0.00 0.00 0.00 77 1009.6
20260510021003 57 360 1.0 6.0 0.00 0.00 0.00 79 1008.2
20260510020214 57 360 2.0 5.0 0.00 0.00 0.00 80 1007.7
20260510015005 57 360 2.0 5.0 0.00 0.00 0.00 80 1007.2
20260510014007 57 360 3.0 7.0 0.00 0.00 0.00 80 1007.2
20260510013005 57 360 2.0 5.0 0.00 0.00 0.00 80 1007.2
20260510012005 56 360 1.0 6.0 0.00 0.00 0.00 80 1007.2
20260510011003 56 360 1.0 10.0 0.00 0.00 0.00 79 1007.1
20260510010004 56 360 2.0 10.0 0.00 0.00 0.00 78 1006.8
20260510005005 57 360 2.0 5.0 0.00 0.00 0.00 78 1006.7
20260510004003 57 360 1.0 6.0 0.00 0.00 0.00 76 1006.7
20260510003005 58 360 2.0 6.0 0.00 0.00 0.00 76 1006.8
20260510002004 58 360 1.0 5.0 0.00 0.00 0.00 74 1006.7
20260510001003 59 360 1.0 5.0 0.00 0.00 0.00 71 1006.9
20260510000003 59 360 1.0 7.0 0.00 0.00 0.00 70 1006.7
20260509235003 60 360 1.0 5.0 0.00 0.00 0.00 69 1006.8
20260509234003 61 360 1.0 4.0 0.00 0.00 0.00 68 1006.6
20260509233004 61 360 2.0 5.0 0.00 0.00 0.00 66 1006.7
20260509232213 61 360 2.0 7.0 0.00 0.00 0.00 66 1006.8
20260509231003 61 360 2.0 7.0 0.00 0.00 0.00 64 1006.6
20260509230215 62 360 2.0 7.0 0.00 0.00 0.00 63 1006.6
20260509225003 65 360 2.0 9.0 0.00 0.00 0.00 59 1006.8
20260509224003 66 360 2.0 7.0 0.00 0.00 0.00 59 1006.8
20260509223005 66 360 4.0 12.0 0.00 0.00 0.00 58 1006.7
20260509222214 66 360 3.0 8.0 0.00 0.00 0.00 58 1006.6
20260509221005 64 360 3.0 8.0 0.00 0.00 0.00 61 1006.8
20260509220005 65 360 4.0 10.0 0.00 0.00 0.00 60 1006.8
20260509215004 64 360 4.0 10.0 0.00 0.00 0.00 62 1006.8
20260509214006 64 360 4.0 10.0 0.00 0.00 0.00 60 1006.8
20260509213214 65 360 3.0 10.0 0.00 0.00 0.00 60 1006.9
20260509212004 64 360 5.0 15.0 0.00 0.00 0.00 60 1006.8
20260509211004 64 360 4.0 11.0 0.00 0.00 0.00 61 1006.8
20260509210004 64 360 4.0 10.0 0.00 0.00 0.00 60 1007.0
20260509205004 64 360 3.0 10.0 0.00 0.00 0.00 60 1006.9
20260509204004 65 360 5.0 12.0 0.00 0.00 0.00 59 1007.0
20260509203003 65 360 4.0 12.0 0.00 0.00 0.00 60 1007.2
20260509202005 65 360 4.0 14.0 0.00 0.00 0.00 60 1007.1
20260509201216 64 360 4.0 8.0 0.00 0.00 0.00 60 1007.3
20260509200004 65 360 4.0 10.0 0.00 0.00 0.00 59 1007.4
20260509195003 65 360 4.0 11.0 0.00 0.00 0.00 60 1007.3
20260509194003 65 360 3.0 10.0 0.00 0.00 0.00 61 1007.5
20260509193003 64 360 4.0 11.0 0.00 0.00 0.00 63 1007.7
20260509192215 63 360 3.0 11.0 0.00 0.00 0.00 62 1007.9
20260509191003 63 360 4.0 10.0 0.00 0.00 0.00 62 1008.1
20260509190003 63 360 4.0 10.0 0.00 0.00 0.00 63 1008.2
20260509185003 63 360 4.0 10.0 0.00 0.00 0.00 63 1008.4
20260509184003 63 360 4.0 17.0 0.00 0.00 0.00 63 1008.5
20260509183003 62 360 4.0 17.0 0.00 0.00 0.00 65 1008.4
20260509182213 62 360 4.0 11.0 0.00 0.00 0.00 66 1008.5
20260509181004 61 360 1.0 6.0 0.00 0.00 0.00 71 1008.7
20260509180003 60 360 3.0 7.0 0.00 0.00 0.00 68 1008.8
20260509175006 60 360 3.0 10.0 0.00 0.00 0.00 68 1008.7
20260509174004 60 360 3.0 9.0 0.00 0.00 0.00 70 1008.6
20260509173003 59 360 2.0 6.0 0.00 0.00 0.00 71 1008.7
20260509172004 58 360 2.0 6.0 0.00 0.00 0.00 74 1008.8
20260509171004 57 360 2.0 8.0 0.00 0.00 0.00 74 1008.9
20260509170003 57 360 1.0 9.0 0.00 0.00 0.00 73 1009.0
20260509105004 38 0 0.0 0.0 0.00 0.04 0.00 84 1009.6
20260509104214 38 0 0.0 0.0 0.00 0.04 0.00 84 1009.5
20260509103214 38 0 0.0 0.0 0.00 0.04 0.00 84 1009.7
20260509102006 38 0 0.0 0.0 0.00 0.04 0.00 84 1009.6
20260509101005 38 0 0.0 0.0 0.00 0.04 0.00 84 1009.5
20260509100005 38 0 0.0 0.0 0.00 0.04 0.00 84 1009.3
20260509095005 38 0 0.0 0.0 0.00 0.04 0.00 84 1009.2
20260509094214 38 0 0.0 0.0 0.00 0.04 0.00 84 1009.2